This is the latest recevied weather packets stored in our database for station/object SQ6ELQ-11. If no packets are shown the sender has not sent any weather packets the latest 10 day(s).
| Time | Temp. | Humidity | Pressure | Rain* | Wind** | Luminosity | Snow |
|---|---|---|---|---|---|---|---|
| 1778095124 | 11.11° C | 75% | 1007.1 hPa | 0 mm | - | - | - |
| 1778093981 | 11.11° C | 73% | 1007.9 hPa | 0 mm | - | - | - |
| 1778092896 | 11.11° C | 73% | 1007.4 hPa | 0 mm | - | - | - |
| 1778091802 | 11.67° C | 74% | 1006.7 hPa | 0 mm | - | - | - |
| 1778090757 | 12.78° C | 75% | 1006.8 hPa | 0 mm | - | - | - |
| 1778089665 | 13.33° C | 74% | 1007.2 hPa | 0 mm | - | - | - |
| 1778088621 | 13.89° C | 74% | 1007.1 hPa | 0 mm | - | - | - |
| 1778087622 | 15° C | 63% | 1006.5 hPa | 0 mm | - | - | - |
| 1778086466 | 15° C | 60% | 1006.1 hPa | 0 mm | - | - | - |
| 1778085407 | 15.56° C | 59% | 1006.4 hPa | 0 mm | - | - | - |
| 1778084304 | 18.33° C | 55% | 1006.7 hPa | 0 mm | - | - | - |
| 1778083261 | 19.44° C | 55% | 1006.9 hPa | 0 mm | - | - | - |
| 1778082086 | 18.89° C | 34% | 1006.7 hPa | 0 mm | - | - | - |
| 1778080992 | 22.22° C | 27% | 1006.6 hPa | 0 mm | - | - | - |
| 1778079916 | 22.78° C | 27% | 1006.4 hPa | 0 mm | - | - | - |
| 1778078788 | 22.78° C | 28% | 1006.5 hPa | 0 mm | - | - | - |
| 1778077801 | 22.78° C | 27% | 1006.5 hPa | 0 mm | - | - | - |
| 1778076691 | 22.22° C | 27% | 1006.6 hPa | 0 mm | - | - | - |
| 1778075630 | 23.89° C | 26% | 1006.8 hPa | 0 mm | - | - | - |
| 1778074609 | 20.56° C | 33% | 1007.1 hPa | 0 mm | - | - | - |
| 1778073565 | 20° C | 34% | 1007.3 hPa | 0 mm | - | - | - |
| 1778072485 | 21.11° C | 36% | 1007.2 hPa | 0 mm | - | - | - |
| 1778071519 | 21.67° C | 36% | 1007.3 hPa | 0 mm | - | - | - |
| 1778070337 | 20.56° C | 37% | 1007.5 hPa | 0 mm | - | - | - |
| 1778069166 | 19.44° C | 40% | 1007.5 hPa | 0 mm | - | - | - |
* Rain latest hour (hover to see other rain measurements)
** Current wind speed in m/s (hover to see current wind gust speed)